Terminal Aerodrome Forecast
Issued by NWS Blacksburg, VA

Home | Current Version | Previous Version | Text Only | Print | Product List | Glossary On
Versions: 1 2 3 4 5 6 7 8 9 10 11 12 13 14 15 16 17 18 19 20 21 22 23 24 25 26 27 28 29 30 31 32 33 34 35 36 37
000
FTUS41 KRNK 260520
TAFROA
TAF
KROA 260520Z 2606/2706 12007KT P6SM OVC100
     FM260900 VRB03KT 4SM -RA OVC015
     FM261100 VRB03KT 2SM -RA BR OVC007
     FM261800 35006KT 4SM -RA BR OVC015
     FM270300 31013G23KT P6SM OVC040=

USA.gov is the U.S. government's official web portal to all federal, state and local government web resources and services.